GFSWCAN_sfc_thetae_066.txt.gz
Theta_e
310 310 310 310 310 310 310 312 312 310 310 312 317 317 316 314 314 309 307 306 305 301 297 297 297 295 295 298 296 294 294 293 294 293 294 295 293 293 291 291 289 289 288 287 287 286 284 294 292 291 295 296 297 296
309 309 309 310 310 310 310 311 311 309 310 310 312 316 316 315 313 311 303 305 304 303 297 298 298 298 298 297 298 295 297 295 298 296 295 295 293 292 292 289 291 288 292 292 291 292 293 296 295 296 297 297 296 296
309 309 309 309 309 309 309 311 311 309 311 311 313 314 315 314 313 310 304 303 303 300 297 298 297 300 301 299 299 298 298 298 297 298 298 297 293 295 290 290 291 292 293 292 291 294 293 295 297 296 296 297 297 296
308 309 308 309 309 310 309 310 311 310 310 310 311 313 315 313 312 310 304 305 304 303 299 296 299 297 300 300 298 299 298 298 299 301 299 299 297 295 294 292 292 294 292 292 292 294 293 295 296 297 296 296 295 295
307 308 308 308 309 309 309 309 310 311 310 312 313 313 314 312 312 309 305 304 303 301 298 294 296 297 299 299 298 299 300 300 300 298 298 298 295 295 293 293 292 294 294 292 291 295 296 295 297 297 295 294 295 294
307 306 307 307 308 309 309 309 311 311 311 311 311 313 313 311 307 306 301 305 304 305 298 294 295 295 296 298 298 297 298 297 299 299 296 295 294 296 292 291 296 296 296 297 296 295 294 294 296 297 295 295 295 295
307 307 307 307 307 308 308 309 310 310 310 311 308 313 310 310 307 300 299 300 304 304 298 291 292 294 294 296 296 298 297 296 298 296 295 295 295 295 293 290 295 295 296 295 295 295 293 294 294 296 295 295 296 296
307 307 307 307 307 308 308 309 310 310 310 310 309 311 310 305 303 300 303 301 300 299 298 290 289 292 294 294 294 294 296 297 293 294 294 294 292 293 287 294 294 294 294 295 295 294 295 296 296 295 296 295 294 294
306 306 306 307 307 308 308 309 309 310 309 309 310 306 302 301 298 300 301 299 299 298 294 293 290 289 293 291 293 293 294 292 292 293 293 292 292 287 293 294 294 294 293 294 294 293 294 295 295 295 295 294 293 293
306 305 306 307 307 308 308 309 309 309 307 309 303 296 293 298 302 301 297 295 296 295 294 290 292 289 293 291 290 292 292 290 289 289 290 288 289 294 294 294 295 295 295 294 291 290 292 293 293 294 294 294 293 293
305 306 306 306 307 307 308 308 308 307 307 298 292 291 298 303 297 293 290 292 291 290 291 290 291 288 291 290 290 290 289 288 286 287 287 288 287 290 290 293 294 295 296 295 295 296 296 296 294 294 293 293 293 294
305 306 306 306 307 307 307 307 306 304 300 297 298 299 297 293 291 289 288 287 287 288 287 288 289 292 290 293 290 288 286 285 284 287 286 284 290 289 290 291 292 294 295 294 294 294 295 294 294 293 294 294 293 293
305 306 306 306 306 307 307 305 306 305 301 298 295 290 290 287 283 283 278 283 283 287 287 288 287 290 289 291 288 288 285 285 286 284 284 288 289 289 290 290 290 293 293 294 294 294 294 294 294 294 293 293 293 293
305 305 306 306 306 306 305 306 305 302 297 291 287 282 285 283 284 286 287 286 289 289 287 289 287 290 289 288 287 286 283 285 281 280 283 290 289 290 290 291 291 291 293 293 294 294 294 292 292 292 293 293 293 293
305 305 305 305 306 306 305 305 304 300 296 289 289 285 284 288 286 287 288 288 288 291 288 288 289 290 286 283 285 282 279 280 282 284 289 290 290 290 290 291 292 292 292 291 292 292 292 292 292 293 294 294 293 293
304 304 303 305 305 305 306 304 301 296 291 288 286 284 284 286 285 286 288 287 291 290 289 292 286 286 284 285 281 282 283 282 287 288 290 289 289 290 290 291 291 291 292 292 292 292 292 292 292 293 293 293 293 292
304 300 304 305 305 305 303 297 292 286 286 285 286 286 288 288 288 288 289 289 292 289 287 288 286 286 284 282 282 284 284 289 289 288 289 290 289 290 291 290 290 291 291 292 292 291 291 292 292 292 292 293 292 293
299 303 305 304 303 299 293 290 286 285 284 285 285 285 287 288 288 288 289 291 291 287 288 288 285 282 283 283 283 286 287 287 288 289 289 289 290 291 291 291 291 291 292 291 291 291 291 291 292 293 292 292 292 292
301 303 303 300 297 289 285 285 287 283 284 285 286 288 288 288 290 291 291 289 289 290 288 287 287 287 286 287 288 287 288 288 287 288 288 290 291 290 291 291 291 291 291 291 292 292 293 292 293 293 293 293 293 293
304 304 304 300 298 289 285 284 289 286 283 285 287 286 287 288 289 290 287 288 288 289 288 287 288 288 289 289 290 290 290 289 289 287 287 288 290 290 290 291 291 291 291 291 291 290 292 293 293 293 293 293 292 290
300 299 300 294 290 290 288 285 286 287 286 285 287 287 286 288 287 287 287 289 289 289 288 289 289 288 289 289 290 290 289 291 291 291 290 289 290 291 290 290 291 291 291 292 292 291 292 292 292 292 292 292 291 291
297 297 287 292 285 285 286 289 287 288 287 286 287 287 285 285 285 287 289 289 289 290 290 289 289 288 287 287 289 290 291 292 292 292 292 291 289 289 289 290 290 291 291 292 291 292 291 291 292 291 290 290 289 289
295 292 286 285 284 285 283 289 285 287 283 283 286 284 284 285 287 289 287 289 290 291 291 290 289 290 289 289 290 289 291 292 291 291 291 291 291 291 291 291 291 291 291 290 292 291 290 290 289 289 289 288 288 288
294 286 284 284 284 281 285 283 286 284 284 283 282 280 281 284 286 286 285 287 289 290 290 289 289 287 287 288 289 289 290 292 291 290 291 290 290 289 291 291 291 292 293 292 291 290 290 289 289 289 288 287 287 286
284 282 283 280 284 281 281 281 282 283 281 282 281 280 281 284 282 282 283 285 287 289 289 290 290 290 288 289 290 290 290 292 291 290 290 291 290 288 289 290 291 291 292 290 289 289 289 289 288 288 287 286 286 285
278 281 281 281 281 281 281 279 280 282 282 280 281 282 283 282 281 281 283 286 287 289 290 290 290 289 289 291 289 289 290 291 291 290 290 290 291 291 290 289 288 288 291 292 290 289 288 288 287 286 286 286 286 286
277 278 282 284 284 283 282 283 286 283 280 279 280 280 282 281 281 284 286 288 288 291 293 293 293 292 291 289 290 291 291 291 291 291 291 291 291 293 293 291 290 292 291 290 290 289 288 287 287 287 287 286 286 286
281 282 279 281 282 284 282 283 282 282 281 283 282 280 281 282 283 286 287 287 287 290 291 292 293 293 291 290 289 288 288 288 288 288 289 289 289 290 290 291 292 291 291 291 291 290 290 289 288 288 287 286 286 287
281 284 283 279 282 283 283 283 283 284 285 284 282 282 282 283 284 284 284 285 287 288 287 287 286 288 288 288 289 289 289 289 289 287 287 287 287 288 289 291 291 291 290 290 289 290 290 290 289 288 287 287 287 288
282 285 282 281 280 279 281 283 282 284 285 285 285 284 284 283 283 285 285 286 287 287 288 287 286 287 286 287 286 286 289 291 292 291 288 287 289 290 289 289 289 288 289 290 289 289 290 289 289 287 286 286 286 286
284 284 281 280 278 281 283 284 285 285 284 284 285 284 283 283 284 285 284 284 286 287 286 285 286 288 288 288 288 287 287 288 287 288 289 289 289 289 289 288 288 288 288 288 287 286 287 286 286 285 284 283 284 285
283 282 280 278 279 283 285 283 283 283 283 284 282 284 283 284 282 283 282 284 286 286 288 288 287 287 290 291 291 291 291 290 288 288 288 288 288 289 288 287 287 288 287 287 286 287 286 285 284 284 283 283 283 284
283 283 282 282 282 281 282 283 282 281 281 281 281 282 282 282 281 282 281 281 285 286 287 286 288 289 288 289 289 288 288 289 289 289 289 289 288 288 287 287 287 287 287 286 286 286 285 284 283 283 283 283 283 283

GFSWCAN_sfc_thetae_072.txt.gz
Theta_e
314 313 312 312 312 313 313 312 311 312 313 313 314 312 312 311 314 311 310 313 308 302 303 304 301 298 299 299 295 295 294 294 293 291 293 295 292 294 292 293 290 288 287 285 286 283 280 295 293 288 293 294 296 294
312 312 312 312 312 313 312 312 312 313 313 312 313 312 313 312 309 311 306 312 312 305 303 303 302 303 301 301 297 297 297 296 298 294 296 299 293 294 293 288 293 286 291 289 290 290 295 295 295 297 298 296 294 295
312 312 312 312 312 312 312 312 312 312 312 312 312 313 312 310 308 310 307 310 307 302 301 302 301 303 303 302 302 297 299 302 300 302 301 299 294 296 289 290 291 292 294 289 289 292 293 295 296 297 297 296 297 297
311 312 312 312 311 312 312 311 311 312 312 311 312 312 311 309 308 307 307 309 307 302 296 299 303 300 304 302 302 301 300 302 303 302 300 300 296 296 292 292 291 292 292 290 289 292 293 295 296 297 297 297 296 296
310 311 311 311 311 311 312 311 311 311 312 311 311 312 311 310 308 306 306 309 310 301 295 298 300 301 302 302 301 301 300 300 300 298 297 298 297 294 294 292 290 294 292 288 288 293 294 293 297 298 296 295 295 293
310 310 310 310 311 311 311 311 311 311 311 310 311 311 311 310 309 304 299 307 309 307 298 295 298 298 300 301 300 300 301 301 301 299 298 297 298 296 291 289 295 295 296 296 293 295 295 295 297 297 296 296 295 294
310 310 310 310 310 310 310 310 310 311 311 310 310 310 310 309 306 301 298 300 305 307 297 294 293 296 299 300 300 299 300 300 300 298 296 297 295 294 293 290 294 296 296 297 297 295 292 294 293 296 297 296 297 294
310 310 310 309 310 310 310 310 310 310 310 309 309 309 308 308 306 301 306 305 304 301 301 292 292 291 297 295 294 299 297 298 297 297 295 294 293 293 287 295 297 296 296 296 295 294 294 295 295 295 295 294 292 291
309 309 309 309 309 309 309 309 309 309 309 309 308 307 305 302 298 301 307 307 304 299 293 291 287 289 295 296 295 295 297 293 295 293 293 293 291 286 292 293 294 294 293 294 295 295 294 293 293 293 293 292 290 291
308 309 309 309 309 309 309 309 308 309 308 307 305 299 293 298 305 302 297 294 294 296 296 294 296 289 294 294 293 293 295 293 288 291 292 288 289 295 297 296 296 296 295 295 292 290 292 291 292 292 291 292 291 291
308 308 308 308 308 308 308 308 308 307 306 301 294 291 299 304 298 295 286 288 290 290 295 295 295 289 295 292 291 294 291 290 286 288 287 287 286 292 293 293 295 296 295 295 294 294 294 294 293 292 292 292 291 291
307 307 308 308 307 308 307 307 307 304 302 298 297 301 298 292 287 286 285 289 290 288 293 291 293 294 293 296 292 289 289 288 284 289 285 283 290 291 292 294 295 295 295 294 295 294 294 294 294 293 292 291 292 292
307 306 307 307 307 307 307 306 306 305 302 300 294 288 286 286 283 283 282 286 288 292 293 292 289 291 291 294 291 289 285 284 288 284 283 287 291 291 292 294 294 295 294 294 294 294 294 293 294 294 292 292 292 292
306 306 306 306 306 306 306 306 305 303 297 288 285 282 283 282 284 287 288 290 293 292 292 293 290 291 291 290 290 285 286 286 281 281 283 289 290 291 292 294 294 293 293 293 293 293 293 293 292 292 292 292 292 291
306 306 306 305 306 306 306 306 304 300 292 285 285 283 284 289 292 292 294 294 293 295 294 291 292 292 288 285 289 284 281 280 283 283 288 292 291 291 291 293 293 293 293 293 293 292 292 291 291 291 292 292 292 292
306 305 304 305 305 305 305 305 302 298 292 286 286 287 291 288 290 291 293 291 295 295 295 294 290 287 285 286 282 282 281 281 285 289 293 292 291 291 292 293 293 292 292 292 291 291 291 291 291 291 291 291 291 292
305 300 304 305 305 304 304 299 290 286 285 284 285 291 292 292 291 290 293 292 296 293 289 292 283 284 288 284 283 286 285 289 292 291 293 292 291 292 293 293 293 292 291 291 290 291 291 291 291 290 290 291 291 292
300 302 304 305 304 302 295 292 288 285 284 286 288 291 292 293 294 292 293 294 294 292 293 292 290 285 283 281 284 288 290 291 292 291 292 292 292 293 293 292 292 292 291 290 290 290 290 290 290 289 290 291 291 291
301 302 304 304 300 290 286 284 286 284 286 289 291 294 293 292 294 295 294 294 294 295 292 292 287 287 287 290 291 291 291 291 290 291 292 292 292 292 292 292 291 291 290 289 289 290 291 292 291 291 291 291 287 289
303 304 304 303 299 289 284 284 288 286 285 288 290 289 290 290 292 293 292 291 291 292 289 285 290 293 292 292 295 294 293 292 291 289 289 291 292 291 291 291 291 290 290 290 291 294 290 290 291 291 291 290 288 287
301 302 302 298 289 289 287 284 285 287 288 288 290 289 288 291 290 290 288 291 289 289 289 292 290 289 292 293 295 294 293 292 290 290 290 289 291 291 291 291 290 290 290 289 288 289 292 290 290 290 289 288 287 287
299 299 291 292 285 285 285 288 288 290 288 288 288 289 286 286 286 287 290 288 289 291 293 291 290 290 291 292 292 293 293 293 292 293 294 293 290 290 290 290 289 289 290 290 291 289 289 289 289 288 287 286 287 286
297 293 286 286 284 284 284 290 286 287 284 285 288 286 285 286 288 291 286 289 292 293 292 291 290 292 292 293 293 293 293 292 291 291 291 291 291 291 290 291 292 291 289 289 291 291 289 290 289 286 286 286 285 285
294 287 285 284 285 283 284 283 286 286 287 285 285 284 285 286 288 286 285 287 291 292 290 290 291 289 290 291 291 291 292 293 291 291 292 291 289 289 291 292 293 293 292 292 291 290 288 287 289 286 285 285 285 284
284 282 284 281 285 283 282 282 284 284 283 285 283 283 283 286 283 283 284 287 289 289 289 290 289 289 289 290 291 291 293 292 291 289 291 292 291 291 290 290 290 292 293 291 288 287 287 287 286 286 285 284 284 283
280 282 283 282 283 283 283 281 282 284 284 283 283 285 285 284 281 282 284 288 289 290 289 289 289 288 289 290 290 290 291 293 292 290 291 292 292 290 289 288 287 287 292 291 289 288 287 287 286 285 284 285 286 284
279 280 284 288 287 286 284 286 288 286 283 282 283 282 282 280 282 285 289 292 291 293 292 292 292 291 290 291 292 293 293 293 291 292 293 293 293 293 292 289 287 290 292 291 290 289 287 286 285 285 284 284 284 284
284 283 281 283 284 287 284 285 284 284 283 285 284 281 282 284 284 286 287 290 293 294 293 293 294 294 293 292 293 292 291 292 292 292 291 291 291 293 293 294 293 294 292 291 289 288 287 287 286 285 285 283 283 285
283 285 285 280 284 285 285 285 285 286 288 286 284 284 282 283 283 284 284 287 294 293 291 291 291 293 292 292 292 290 291 290 288 285 284 284 285 286 291 291 291 291 290 290 293 291 289 288 287 286 285 284 284 285
284 288 284 282 281 281 283 284 284 286 287 286 285 283 282 282 284 285 286 289 291 292 292 292 292 291 289 288 287 288 290 291 291 289 286 286 287 289 290 290 289 289 289 288 288 288 292 288 288 285 284 283 282 282
286 285 282 281 280 283 284 286 286 287 286 285 286 283 281 282 283 284 284 287 289 292 291 289 289 290 289 288 288 287 287 289 290 292 292 291 290 290 290 290 290 289 288 288 287 287 286 283 282 281 281 281 282 282
285 282 281 279 280 284 286 285 284 284 284 284 283 283 283 283 281 282 283 285 288 289 291 291 289 288 290 291 291 291 292 290 291 292 291 291 291 290 290 290 289 289 288 287 286 286 285 282 281 281 280 281 281 281
283 283 283 282 282 282 284 284 283 281 281 281 282 283 282 282 280 281 283 284 284 289 290 290 291 291 291 291 290 290 291 289 291 294 294 294 293 291 289 289 288 288 286 284 284 284 283 282 281 281 280 280 280 281

GFSWCAN_sfc_thetae_075.txt.gz
Theta_e
315 314 314 314 314 314 314 313 313 313 313 313 313 313 313 313 313 310 306 307 304 298 298 301 301 293 294 292 289 290 289 289 287 285 286 288 286 289 287 288 286 284 280 280 281 278 278 291 290 284 287 291 293 292
313 314 313 314 314 314 314 314 313 313 313 313 313 313 313 312 309 312 304 308 308 303 300 301 300 299 299 298 293 292 290 291 292 287 289 293 289 288 288 283 289 283 288 285 284 284 291 291 290 293 294 293 291 292
313 312 313 313 313 313 314 313 313 313 313 312 312 312 313 313 312 308 303 303 303 301 300 299 299 304 300 299 298 291 293 296 295 297 295 294 290 289 284 285 285 287 290 286 286 288 291 292 293 295 294 294 294 294
312 312 312 312 312 312 313 313 312 313 313 312 312 312 313 312 311 307 301 303 305 300 294 293 301 298 300 299 298 297 296 298 296 295 296 292 287 291 287 288 286 288 288 286 285 287 289 291 292 294 294 295 294 293
311 311 311 311 311 311 312 312 312 312 313 312 312 312 312 312 309 303 299 301 308 300 293 295 299 298 298 297 297 298 296 294 293 293 292 290 292 289 288 287 285 289 288 284 284 289 289 290 293 295 293 293 293 291
310 310 310 310 311 312 312 312 312 312 312 311 311 311 311 311 309 300 292 300 303 304 297 290 298 295 296 297 296 295 295 294 294 294 291 291 293 292 281 280 290 291 291 291 289 291 291 292 294 294 293 293 292 291
310 310 310 310 311 311 310 310 311 311 311 311 310 310 310 309 303 296 294 300 304 308 297 290 291 294 295 295 294 294 295 294 295 292 290 290 289 292 281 281 291 293 292 291 292 292 289 290 291 294 294 294 295 292
309 309 310 310 310 310 310 310 310 310 310 310 310 309 308 308 305 300 300 306 305 301 299 288 290 289 293 290 290 294 292 292 292 291 290 289 289 287 282 290 294 294 291 291 291 291 291 292 292 292 292 291 289 289
309 309 309 309 310 310 310 310 310 310 309 309 308 306 301 301 297 299 307 307 305 298 287 289 285 284 292 290 291 291 292 285 291 287 288 288 285 282 288 289 291 293 291 291 291 291 291 291 290 290 289 289 288 289
308 308 309 310 310 310 310 310 309 309 308 307 300 296 290 297 306 304 299 295 295 295 294 288 292 286 290 289 287 288 288 286 282 286 288 282 284 291 293 293 292 292 292 292 289 288 288 288 288 288 288 289 289 289
308 308 309 309 309 309 309 309 309 307 305 295 292 289 296 305 298 295 288 287 287 285 291 289 291 287 292 289 288 289 284 287 279 284 284 281 281 288 290 292 292 292 292 292 291 290 291 291 290 289 289 289 289 290
307 308 308 309 309 309 308 308 307 300 295 295 295 298 297 293 289 285 283 287 286 285 288 288 289 291 291 293 288 284 285 283 278 285 279 279 285 288 289 290 291 291 292 291 292 291 291 291 291 290 288 289 289 290
307 307 308 308 308 308 308 307 306 304 301 296 293 290 287 286 279 281 279 282 285 287 289 288 287 289 289 291 286 285 280 278 284 277 279 281 286 288 289 290 290 290 291 291 290 291 291 290 291 290 289 289 290 290
306 307 307 307 307 307 307 306 304 302 295 288 285 281 281 279 282 284 283 284 289 288 291 292 287 288 289 287 285 282 282 281 275 275 279 284 286 287 289 290 290 289 290 290 290 291 291 291 290 290 290 290 290 289
306 306 306 306 306 307 306 305 304 297 292 286 285 278 281 284 285 286 288 287 289 292 293 290 289 289 285 286 285 279 277 274 278 279 282 287 288 289 289 289 289 289 290 290 290 290 289 289 289 288 289 290 290 290
306 305 303 305 306 305 305 304 301 297 292 287 285 285 286 283 282 285 288 287 290 293 293 291 287 286 284 284 278 278 276 277 281 284 287 287 288 289 289 290 290 290 290 290 289 289 289 288 289 288 289 289 290 290
305 298 304 305 305 305 304 298 293 288 285 284 282 288 285 286 285 287 288 287 294 293 287 287 285 284 282 273 274 279 279 283 286 286 288 288 288 289 290 291 290 291 289 288 288 288 288 289 288 288 287 288 290 290
299 301 305 305 304 302 297 292 288 285 283 285 283 285 286 288 289 290 289 290 292 291 291 288 288 281 277 276 278 284 287 286 286 288 288 288 289 291 292 290 290 290 289 288 288 288 288 288 288 287 288 289 289 288
301 302 305 305 301 290 285 285 288 283 283 285 285 288 289 289 291 292 292 292 292 292 291 288 285 281 282 285 287 288 289 287 288 287 287 288 290 290 290 290 289 288 288 287 288 288 288 289 288 288 288 288 285 286
304 305 304 303 299 289 284 282 289 286 284 286 286 287 289 289 291 291 290 290 290 290 287 285 283 285 288 291 292 292 290 291 290 288 286 287 289 289 289 290 289 287 288 288 290 291 289 288 289 289 288 287 285 284
302 302 302 298 290 290 286 283 284 284 286 286 287 288 286 288 288 288 288 289 288 284 282 287 287 288 290 292 293 292 291 292 291 290 289 287 289 289 288 288 288 289 289 289 288 289 289 287 287 288 287 285 284 284
298 302 294 293 285 285 285 287 287 289 285 286 287 288 284 283 283 288 288 286 284 287 289 288 288 288 290 290 290 292 290 289 289 291 293 292 288 288 288 288 289 287 288 288 289 288 287 287 286 285 284 284 285 284
296 292 287 285 284 284 283 289 285 286 281 284 286 284 284 283 284 288 284 286 287 290 290 288 288 291 290 290 291 291 291 290 289 289 290 290 289 289 288 289 290 289 288 287 290 289 287 289 288 284 285 284 283 283
294 286 284 284 283 281 285 283 285 285 285 284 284 281 283 285 286 283 281 282 287 289 287 287 288 288 288 288 289 290 291 291 290 290 290 289 288 288 290 290 291 290 291 290 289 287 286 286 288 284 283 283 283 283
284 283 284 281 282 279 276 280 282 283 282 284 281 281 283 285 282 282 281 283 286 287 287 288 288 289 288 288 289 290 291 291 290 289 290 291 289 289 289 289 289 290 291 289 286 285 285 285 284 284 283 282 282 282
280 281 282 281 277 279 279 279 280 281 282 282 282 283 283 282 280 279 281 285 286 288 287 287 287 285 286 290 290 289 290 293 292 289 290 292 291 290 289 288 287 286 290 290 288 286 285 285 284 283 283 284 287 283
278 279 283 284 284 283 282 283 285 283 281 280 282 281 280 279 279 282 286 290 290 291 291 291 290 290 289 289 290 292 293 293 292 291 292 292 293 293 292 289 288 290 290 290 289 287 286 285 284 283 282 282 282 283
281 283 280 281 281 283 281 282 282 283 284 284 283 280 279 281 283 284 285 287 290 292 291 291 291 292 292 292 292 291 291 291 292 292 291 290 289 290 290 291 291 293 291 290 288 287 286 285 284 283 283 282 282 283
281 283 283 279 279 281 281 282 282 284 286 284 283 282 282 281 282 281 283 284 290 291 289 289 289 291 290 290 291 292 292 292 289 287 286 285 286 284 290 291 292 290 290 290 291 289 286 286 285 284 283 283 283 283
280 285 283 281 277 278 281 282 283 284 285 284 283 281 281 281 280 281 283 285 289 289 290 290 290 290 287 288 287 288 290 292 292 290 287 287 287 288 290 290 289 289 289 289 288 289 292 288 288 284 283 282 281 281
284 282 280 280 279 279 281 283 285 286 285 284 284 281 279 280 282 283 283 283 284 288 289 288 289 290 289 288 288 287 286 288 289 290 291 290 290 290 289 289 289 289 288 288 287 286 285 282 282 281 281 280 281 281
281 281 280 277 277 281 283 283 283 283 283 282 281 282 281 281 279 281 283 283 287 288 291 290 288 288 291 291 292 291 293 289 290 290 290 290 290 290 289 289 289 288 287 287 285 284 283 281 281 280 280 280 280 280
281 281 282 282 281 280 282 282 281 280 281 280 279 281 281 280 279 280 282 282 284 287 289 289 290 290 290 291 290 291 293 292 292 293 293 293 292 291 289 288 288 288 286 285 284 283 281 280 280 280 280 280 280 280

GFSWCAN_sfc_thetae_078.txt.gz
Theta_e
316 316 315 315 315 315 315 314 314 315 314 313 313 314 314 314 314 308 303 306 305 297 296 299 299 293 294 291 287 290 288 287 286 284 284 285 285 289 287 287 285 284 280 279 280 278 279 290 289 283 285 289 291 290
315 316 315 314 314 314 313 313 314 314 314 313 313 313 314 313 312 310 300 305 307 302 300 302 302 301 299 298 292 290 288 289 289 285 285 288 288 287 286 283 287 283 287 284 284 284 290 290 287 289 292 291 290 291
315 315 314 313 313 313 313 313 314 314 313 313 312 313 313 313 310 309 301 300 301 300 298 298 297 303 303 300 299 290 291 293 292 293 291 290 288 288 284 285 285 287 289 286 285 287 289 291 291 292 293 292 292 292
314 314 314 313 313 313 312 313 314 313 313 313 313 313 313 313 312 307 298 300 300 297 292 292 299 296 300 299 298 299 296 294 294 292 291 289 287 291 287 288 286 287 287 286 284 287 287 291 291 293 293 294 292 292
314 314 313 313 312 312 312 312 313 313 313 313 313 313 312 312 311 302 298 299 303 296 290 293 298 299 298 295 297 296 294 292 290 290 289 290 292 288 286 285 284 288 287 284 285 288 288 287 291 293 292 292 291 290
313 313 313 312 312 311 311 311 311 312 312 312 312 312 312 310 306 300 293 297 301 303 295 288 295 294 294 294 294 293 293 291 291 290 290 291 292 291 281 280 288 289 290 290 289 288 290 290 292 292 292 291 290 290
313 312 312 311 311 311 310 310 310 311 312 312 311 311 310 309 302 297 293 299 304 301 295 289 287 293 294 293 292 291 291 291 291 290 289 290 289 291 280 282 290 292 292 290 290 291 289 290 291 292 292 292 293 290
312 312 311 311 311 310 310 310 310 311 311 311 310 309 309 308 304 299 299 304 305 300 298 287 288 287 294 290 288 292 290 290 290 290 289 288 288 285 281 288 291 291 289 289 290 289 290 291 291 291 291 290 288 288
311 311 311 310 310 310 310 310 311 310 311 310 308 306 300 297 295 295 305 306 305 299 287 286 286 279 291 291 292 291 290 284 288 287 288 287 284 282 289 290 290 292 290 289 289 289 290 290 289 288 288 287 287 287
310 310 310 310 310 310 310 309 309 310 309 307 299 293 290 293 305 304 297 295 296 296 293 286 292 285 290 289 288 287 284 282 281 286 287 282 284 289 292 291 292 292 291 290 288 287 287 286 287 286 286 288 288 288
310 310 309 309 309 309 309 308 309 308 305 296 291 289 296 305 294 291 287 288 288 285 289 290 289 287 292 289 288 289 283 285 279 284 284 281 280 286 290 293 292 291 291 292 289 291 291 291 288 287 287 288 288 288
309 309 309 308 308 308 308 307 307 300 297 295 294 298 297 293 290 286 284 286 285 283 289 286 288 291 292 294 290 286 283 279 278 283 278 279 283 288 288 289 290 289 290 290 290 290 289 290 289 288 287 287 288 288
309 308 308 308 308 308 307 307 305 303 301 295 291 289 286 286 281 279 278 283 283 286 287 287 287 289 290 292 288 285 278 278 282 276 279 281 285 287 288 288 288 289 290 290 289 290 290 289 289 288 288 288 289 289
308 307 307 307 307 307 306 306 304 302 294 288 284 280 282 280 281 279 281 283 287 287 288 291 287 288 289 288 287 283 282 280 274 275 279 283 285 287 288 288 289 288 289 289 289 290 289 289 288 289 289 289 289 288
307 306 306 306 306 306 306 305 304 298 291 286 285 278 280 282 282 283 285 284 286 287 289 288 289 289 285 286 286 282 277 273 277 280 283 287 286 288 287 287 288 288 288 289 289 289 288 288 288 287 288 289 289 289
306 305 303 305 305 305 305 304 301 296 290 287 286 282 285 281 280 282 284 285 288 290 292 291 287 285 285 285 280 279 276 277 282 284 288 286 287 288 288 288 289 289 289 289 289 288 288 288 288 287 288 288 288 289
305 299 304 305 305 305 304 298 295 288 287 284 283 286 285 283 284 284 285 286 289 290 286 287 283 283 283 279 273 278 279 284 286 288 288 287 288 288 289 289 289 289 289 288 287 288 287 288 288 288 286 287 288 288
298 302 304 305 304 302 298 293 287 285 282 285 282 285 285 285 285 285 286 287 289 288 290 287 287 282 278 274 278 284 285 288 287 287 287 286 287 289 291 289 290 289 288 287 288 287 287 287 287 286 287 287 287 286
301 303 304 304 301 289 285 286 288 283 285 285 283 286 286 286 288 289 288 289 289 290 291 288 286 282 281 282 285 288 291 289 288 287 286 287 289 290 289 290 289 288 287 287 288 288 288 288 287 287 287 287 284 284
304 304 304 303 299 288 283 283 289 285 283 284 284 285 285 287 288 287 287 288 288 289 287 286 287 286 285 288 291 292 292 291 289 286 284 285 288 289 289 289 289 288 287 286 288 290 288 287 287 288 287 286 284 283
302 302 303 301 292 290 286 284 284 285 286 286 284 285 283 285 285 286 285 287 286 284 286 286 287 292 296 291 292 293 291 291 290 288 289 287 289 289 289 288 288 289 288 288 288 289 289 288 286 287 287 284 283 283
298 303 297 293 285 285 285 287 285 287 285 285 284 284 281 281 282 283 287 286 282 287 289 288 289 290 290 290 291 291 291 290 290 292 292 291 287 287 287 288 288 288 288 288 289 288 287 287 286 285 284 284 284 283
295 292 286 285 284 284 282 289 285 285 282 283 284 282 281 280 282 287 282 283 285 289 292 292 290 290 290 290 290 290 290 290 289 289 290 289 289 289 289 289 289 288 286 286 289 288 287 288 288 284 285 283 282 283
294 287 285 284 283 280 284 283 285 284 285 284 280 276 282 282 283 280 280 281 285 289 289 289 291 288 287 288 287 289 290 291 289 288 289 288 287 287 289 289 289 289 290 289 288 287 286 285 287 284 283 282 282 282
284 283 284 281 283 281 280 281 282 283 280 280 280 280 283 285 281 279 280 282 286 287 290 289 289 290 288 288 287 288 290 291 289 287 289 290 288 288 288 288 287 289 290 288 286 285 285 285 284 283 283 282 282 282
279 281 281 280 280 277 280 277 280 279 281 281 282 282 282 282 280 280 281 287 285 288 289 289 290 289 287 289 288 288 289 292 291 289 289 290 291 290 288 287 286 285 289 290 287 285 284 284 284 283 282 284 286 283
277 278 282 283 282 281 281 280 281 281 279 278 281 281 281 278 278 281 285 287 289 290 292 292 292 291 291 289 290 290 292 292 291 291 292 292 293 293 291 289 288 289 290 289 288 287 285 284 283 283 282 282 283 283
279 282 281 283 282 282 280 281 281 280 280 281 282 278 278 279 281 285 286 287 287 292 293 293 293 293 292 292 292 291 290 290 291 291 291 289 289 290 290 291 292 293 290 289 288 287 286 285 284 283 283 282 282 283
280 281 283 278 279 281 279 281 281 283 285 283 281 280 281 283 282 281 282 283 285 290 289 289 289 291 291 291 291 291 291 291 288 286 286 286 286 285 289 291 291 290 289 289 291 288 286 285 284 284 283 283 283 283
278 282 281 280 276 277 280 282 281 282 283 284 283 282 281 280 281 281 282 284 285 288 289 290 290 290 288 287 286 287 290 292 292 291 288 287 288 289 290 290 289 289 289 288 287 288 291 288 287 284 283 282 281 281
283 281 279 279 275 279 280 281 283 284 283 282 282 281 281 281 283 284 284 284 285 287 289 288 289 290 289 288 288 287 287 288 290 290 291 291 290 291 291 290 290 290 289 288 287 287 285 283 283 282 281 281 281 281
281 280 279 276 278 277 281 282 282 282 283 282 280 281 280 281 280 282 284 284 286 287 290 289 288 288 291 291 292 291 293 290 291 291 290 291 291 291 290 290 290 290 288 287 286 285 283 282 282 281 281 281 280 280
280 280 280 278 279 280 280 281 279 277 279 279 280 281 282 281 280 282 283 283 285 288 289 290 290 291 291 291 291 291 291 291 291 294 294 293 292 291 290 290 289 289 287 286 284 283 282 281 281 281 281 280 280 280

GFSWCAN_sfc_thetae_084.txt.gz
Theta_e
319 319 319 319 319 318 318 318 318 317 316 315 315 315 314 314 313 310 305 303 303 294 293 297 297 291 292 290 286 288 288 286 284 281 281 280 280 285 284 285 282 282 278 278 280 278 278 289 287 282 286 287 288 288
319 319 319 319 318 318 318 317 317 317 316 315 315 314 314 315 314 311 303 305 307 301 295 300 300 299 298 297 293 290 287 287 288 282 281 281 283 283 284 282 284 282 285 282 283 284 289 289 287 287 289 290 289 289
318 318 318 318 318 318 318 317 317 316 315 314 314 314 314 314 314 309 300 301 300 294 293 293 293 297 301 301 300 291 290 292 289 289 286 285 284 286 283 284 283 285 287 285 286 287 288 290 289 289 291 290 290 290
318 318 318 317 317 317 317 316 316 316 315 314 313 313 313 313 312 306 300 300 297 294 289 290 297 294 299 299 298 298 297 293 291 290 288 285 282 289 285 286 285 287 286 285 284 287 287 288 289 290 291 291 290 289
317 317 317 317 317 316 316 316 316 316 314 313 313 313 312 312 311 302 297 298 298 293 286 289 294 295 297 297 297 297 295 292 288 287 285 283 287 287 284 283 283 286 288 285 287 289 287 287 288 290 291 291 290 288
316 317 316 316 316 316 315 315 315 314 313 312 312 312 311 311 307 301 295 297 300 299 290 283 292 291 293 292 292 291 293 289 289 287 285 287 289 289 279 279 288 289 289 290 289 286 287 288 290 289 291 290 289 289
316 316 316 316 316 315 314 314 313 313 313 311 311 311 310 309 302 295 292 295 303 298 290 284 285 292 292 290 289 289 289 288 288 286 285 286 287 289 276 282 290 292 293 292 289 289 287 289 289 290 291 290 292 288
315 316 315 315 315 314 314 313 312 312 312 311 311 309 308 308 304 297 302 303 301 295 293 285 287 287 288 286 285 287 285 286 286 286 285 285 285 284 281 289 292 294 295 291 289 289 288 288 289 288 288 288 287 286
309 315 315 315 314 314 313 313 312 312 311 310 309 308 305 301 297 297 306 305 300 293 285 287 280 278 287 286 286 286 286 280 286 283 284 286 283 280 288 290 292 293 292 290 287 287 287 288 287 286 286 286 285 285
307 314 315 314 313 312 312 312 312 310 310 309 304 296 291 296 305 304 298 294 294 293 292 287 288 281 286 283 283 285 286 284 282 283 285 282 285 291 292 293 293 292 292 288 287 285 285 285 286 285 285 286 287 286
306 311 314 312 311 311 311 311 310 309 307 299 293 290 295 304 295 291 287 286 286 286 289 288 287 283 288 283 283 290 288 288 282 282 281 280 279 289 294 295 297 296 292 290 290 289 290 289 287 285 285 286 286 286
307 309 312 311 310 310 311 310 309 304 300 297 296 300 298 292 288 284 283 285 284 280 285 286 287 287 286 289 287 289 287 285 281 281 276 279 284 289 291 293 296 297 294 290 290 290 289 288 288 287 286 286 286 286
304 307 311 310 310 310 310 308 306 303 302 297 293 290 287 286 279 279 277 280 282 285 284 287 286 287 290 291 290 287 284 282 282 274 278 282 288 288 289 288 289 288 289 290 288 288 288 286 287 287 286 286 286 287
302 303 310 309 309 310 308 306 304 303 296 288 284 280 279 278 280 279 280 282 286 283 285 287 284 288 290 288 288 283 284 279 273 273 279 284 287 288 287 288 288 286 287 288 288 287 287 287 286 287 287 288 288 287
302 302 309 307 309 308 307 304 304 299 292 285 284 276 279 281 281 282 283 284 285 287 288 284 284 287 286 286 286 283 276 272 277 279 283 288 288 287 287 287 286 285 287 287 287 287 286 287 287 286 287 287 288 287
304 303 306 307 308 307 304 304 300 295 290 285 282 278 280 280 278 280 283 284 285 287 288 288 287 285 285 286 283 282 274 275 280 283 287 288 288 288 286 285 285 285 286 287 287 287 287 287 287 286 287 287 286 286
300 301 307 308 307 304 303 297 293 287 286 282 282 283 282 282 283 284 285 285 286 289 281 287 283 282 286 282 280 278 279 283 286 288 289 288 287 287 284 285 286 286 285 286 286 287 286 287 288 287 285 284 285 285
299 306 307 306 304 301 295 292 286 285 283 285 280 281 282 283 284 284 286 286 286 285 286 284 284 283 277 275 277 281 283 285 287 288 287 287 288 287 287 285 286 285 284 285 286 286 287 287 287 286 285 284 284 284
305 306 306 304 300 289 285 286 288 282 284 284 283 285 284 286 287 287 287 288 286 287 286 281 279 282 281 282 282 283 286 288 288 288 287 288 288 286 287 287 286 285 285 285 286 287 287 287 287 287 286 286 284 282
306 305 304 301 298 288 283 283 290 283 282 283 284 283 284 286 288 287 284 284 286 285 279 276 280 285 284 286 287 288 289 290 289 289 290 287 287 286 285 286 285 285 285 285 286 288 285 285 286 286 286 285 284 282
303 301 300 298 290 288 285 284 285 284 283 281 283 284 283 285 285 283 283 284 283 279 280 283 285 288 289 289 290 290 290 290 290 290 290 288 286 286 285 285 285 286 287 287 286 286 287 286 285 286 287 284 283 282
298 300 294 292 285 285 285 286 285 286 284 283 284 284 282 282 282 282 282 281 280 283 284 285 286 288 288 288 290 290 291 291 290 290 292 291 285 284 284 285 286 285 286 287 287 286 284 286 286 285 284 283 284 282
298 293 286 285 284 283 281 286 283 281 281 281 283 280 280 281 282 284 280 281 282 284 287 287 288 289 290 290 289 290 290 290 289 289 290 290 288 288 286 286 288 286 285 285 287 286 286 288 288 284 284 282 283 283
295 286 284 283 282 279 284 283 284 283 284 282 278 278 280 280 282 280 279 280 283 285 286 286 289 288 285 285 286 289 291 290 289 288 289 287 285 286 287 287 288 288 289 288 287 286 287 285 287 284 283 283 283 283
285 282 283 279 283 281 280 280 281 280 280 281 277 275 281 281 278 279 279 281 282 284 286 288 289 289 288 289 290 291 290 290 288 288 288 288 285 285 285 285 285 288 289 287 286 285 284 285 283 282 283 283 283 282
278 281 275 278 280 278 279 277 279 279 280 279 279 281 282 280 278 275 279 283 283 285 287 287 287 287 288 290 289 289 289 291 291 289 288 289 288 287 286 285 284 283 289 290 287 286 284 283 282 282 282 285 287 283
272 276 281 281 280 281 279 280 281 281 279 277 281 281 281 277 276 280 283 284 284 288 289 290 290 289 288 289 290 292 290 291 291 291 290 289 289 290 289 287 286 288 289 289 289 287 284 283 283 283 283 284 284 283
278 282 278 280 280 280 279 279 280 279 280 281 281 278 276 277 278 283 283 285 288 287 288 290 291 291 291 291 291 290 289 289 289 289 288 286 286 287 288 288 289 292 290 290 289 288 286 285 284 283 284 283 282 282
281 281 281 278 279 279 278 280 280 281 283 283 280 279 280 282 283 283 282 280 283 286 285 285 287 289 289 289 290 291 289 289 287 284 284 283 283 284 288 290 290 290 290 289 291 289 287 285 284 284 284 283 283 283
280 281 279 278 276 277 280 281 281 281 281 283 282 281 281 280 277 276 279 280 282 284 286 287 287 289 288 288 286 286 290 291 292 290 287 286 287 288 289 290 290 289 289 288 287 288 291 287 287 284 283 282 282 281
280 280 278 278 274 277 278 279 280 281 281 280 280 281 281 280 280 280 280 280 280 283 286 287 286 287 288 288 288 287 286 290 291 291 290 291 290 290 290 290 290 289 289 288 287 286 285 283 283 282 281 281 282 282
280 279 279 275 277 278 279 280 279 279 279 279 277 279 279 279 280 281 281 282 282 283 287 288 287 287 290 292 292 291 293 290 290 291 291 290 290 291 290 289 289 289 288 288 287 285 284 283 282 282 281 281 281 281
278 280 281 280 279 279 280 278 277 277 276 276 277 279 279 280 281 283 281 284 285 287 287 289 290 291 291 291 291 291 292 291 292 293 294 293 293 292 290 290 289 289 288 286 285 285 283 283 282 282 281 281 281 281

GFSWCAN_sfc_thetae_090.txt.gz
Theta_e
318 321 321 321 320 320 319 319 319 318 318 317 317 316 315 315 313 312 309 310 306 299 299 300 300 297 296 296 290 294 293 294 296 290 290 291 290 292 292 294 292 291 290 291 290 289 288 296 295 291 295 297 297 298
313 319 320 320 320 320 319 319 319 318 317 317 316 316 315 315 314 313 307 310 311 304 300 303 304 305 303 301 298 297 294 293 298 293 292 293 291 293 293 290 294 291 294 293 293 294 297 298 297 298 296 298 299 298
311 313 319 319 319 319 319 319 319 318 317 315 315 315 315 315 314 312 308 308 308 303 300 300 298 304 307 305 306 295 298 297 295 298 297 295 291 295 291 293 293 295 294 294 294 295 297 298 299 298 299 298 299 300
310 310 318 319 319 319 319 319 319 318 317 316 315 315 315 314 313 310 307 309 307 301 293 294 301 299 303 305 304 304 301 299 299 301 297 295 292 296 293 294 293 297 295 294 295 298 298 298 297 297 298 299 298 298
310 311 311 318 318 318 318 319 318 318 317 316 315 315 314 313 313 310 309 308 308 300 292 293 298 299 300 302 301 302 301 299 298 295 293 292 296 294 295 293 292 297 296 294 294 297 297 299 300 298 298 298 299 297
308 309 310 310 318 318 318 318 317 317 316 315 314 314 313 313 309 306 299 307 307 307 296 289 297 296 298 298 300 300 300 300 298 296 294 294 297 295 292 289 295 299 300 300 298 300 299 301 300 300 298 298 299 298
309 310 309 310 313 317 317 316 316 316 316 315 314 313 312 310 308 299 297 303 307 307 295 290 290 296 297 296 296 297 299 298 298 294 292 294 295 295 293 288 294 297 299 300 300 299 298 300 299 298 298 298 298 297
308 307 310 310 311 316 316 316 316 316 315 315 313 312 310 308 305 299 303 305 307 301 298 288 288 291 296 294 293 296 294 295 294 294 294 292 294 293 288 293 296 297 298 298 298 300 300 300 298 297 298 296 295 294
308 309 310 310 311 311 316 316 316 315 315 314 311 309 305 302 297 299 305 305 306 300 289 289 286 286 294 293 294 293 295 290 294 291 292 293 291 287 292 295 296 297 297 297 300 300 300 297 298 296 296 295 295 294
308 307 307 310 310 308 316 316 315 314 313 310 306 299 294 298 306 305 299 295 295 297 294 288 291 287 293 292 292 292 293 291 286 290 293 289 289 295 297 298 298 299 299 300 297 295 294 295 296 296 295 296 296 294
307 307 308 309 310 310 315 315 314 311 309 302 293 290 300 305 298 294 288 288 289 286 290 290 290 288 294 291 292 294 290 289 284 289 288 289 288 293 298 297 299 300 300 300 300 300 301 300 297 296 295 295 295 294
307 307 307 307 307 309 310 314 310 307 304 297 297 301 298 293 288 286 285 287 286 284 288 288 289 291 292 296 293 291 289 288 281 289 286 285 292 296 296 296 297 296 296 298 300 299 299 299 299 297 296 294 294 295
307 307 307 306 309 308 311 310 309 304 303 301 295 289 288 287 283 282 279 281 282 286 288 288 287 290 291 295 292 290 284 284 289 284 285 289 295 295 296 296 295 295 294 294 298 300 299 299 297 296 294 295 294 293
306 306 306 306 305 305 310 308 304 304 298 288 285 282 285 283 284 285 285 285 288 288 289 290 288 289 291 289 291 284 287 287 283 281 284 292 295 295 295 294 292 291 293 293 295 299 297 296 295 295 295 294 293 292
305 306 305 304 302 304 307 305 305 302 292 285 287 283 283 288 287 288 290 288 290 292 291 289 290 292 289 287 287 287 282 281 283 286 290 294 295 295 294 293 291 291 292 292 295 295 295 294 293 293 294 294 294 293
305 305 302 303 302 304 305 305 302 294 291 288 287 285 286 285 283 287 288 288 292 291 293 293 288 286 284 287 283 282 283 282 287 290 294 295 295 294 292 292 291 290 291 292 293 293 293 293 292 292 293 293 293 292
304 299 303 303 301 305 305 300 292 286 286 284 284 286 288 287 286 287 289 289 293 291 289 289 284 284 289 285 283 286 285 290 292 294 295 294 294 293 292 292 290 290 290 291 292 292 293 293 293 292 291 292 292 292
299 301 303 303 301 303 298 290 285 285 283 285 284 285 288 290 288 288 290 292 291 291 291 288 290 285 284 283 284 289 291 293 294 295 295 295 294 293 292 291 289 290 290 291 291 292 292 292 292 292 291 291 291 290
300 301 302 302 299 288 285 285 285 284 285 286 287 287 289 288 290 291 292 293 294 293 292 290 285 285 286 291 291 292 294 294 294 295 295 294 294 292 291 290 289 290 291 291 292 292 293 294 292 292 292 292 291 290
301 301 299 298 297 286 284 283 286 286 284 285 288 286 287 288 289 291 292 291 292 291 288 286 289 290 292 294 294 296 296 296 296 295 294 294 294 292 292 290 290 290 290 290 291 292 291 291 292 292 292 292 290 289
298 298 299 297 288 286 285 284 285 286 286 286 287 288 286 288 288 288 288 291 290 290 287 289 291 295 295 296 296 296 296 296 296 296 296 295 294 293 291 290 290 291 291 291 291 291 292 291 292 292 292 292 292 291
296 298 292 291 285 285 285 287 286 287 286 286 287 288 285 284 285 287 289 289 289 291 291 290 293 294 293 293 294 296 297 296 296 296 295 294 294 292 290 290 290 290 291 292 292 292 293 292 292 293 292 291 291 290
296 292 285 285 284 284 283 288 284 286 282 284 286 284 284 285 287 289 286 288 289 292 291 292 294 295 296 296 295 295 296 296 295 294 295 296 295 294 292 291 291 291 290 291 294 293 292 292 292 291 291 290 290 290
294 286 284 283 284 280 284 283 285 284 284 284 283 281 282 283 286 284 283 285 287 288 290 291 292 292 291 291 293 294 294 295 294 294 295 295 294 293 293 292 291 292 293 293 292 292 292 291 292 291 290 290 290 289
283 282 283 280 284 282 281 282 282 283 281 283 281 280 281 284 282 281 281 284 286 287 290 292 292 293 292 293 293 294 295 294 293 292 294 295 295 292 291 291 291 292 292 291 290 291 291 291 290 290 289 289 289 288
278 280 281 281 281 282 283 280 282 282 283 281 282 283 283 283 282 281 283 286 287 289 289 291 291 291 291 293 293 291 293 294 294 292 294 294 294 294 291 289 289 289 292 293 292 291 290 290 290 289 289 289 289 288
278 278 281 284 284 284 283 284 286 284 281 279 281 282 282 280 280 284 287 288 290 291 293 293 293 292 292 293 293 294 294 294 294 294 296 295 296 296 295 291 290 293 292 293 293 292 290 289 289 289 289 289 289 289
281 282 280 282 283 286 282 283 282 281 281 284 284 280 281 281 282 286 288 291 293 293 294 294 294 294 294 294 294 293 292 293 292 291 291 291 292 293 294 295 295 293 293 293 293 293 292 291 290 290 289 288 288 289
282 285 285 282 284 284 283 282 282 284 286 286 283 281 283 285 287 287 288 288 291 291 289 289 290 293 293 292 293 293 292 291 290 288 288 290 290 291 292 293 293 293 293 293 294 293 292 292 291 290 290 289 288 289
282 284 283 282 280 280 281 283 283 285 286 285 285 285 285 286 286 284 286 288 289 289 291 291 290 291 290 290 290 289 292 293 293 292 290 290 292 294 292 292 293 293 293 292 291 291 293 292 291 290 288 287 287 287
283 283 280 279 278 280 281 284 285 285 284 283 284 285 285 285 286 285 286 287 289 289 289 288 289 291 291 290 290 289 289 291 293 294 295 295 294 292 292 293 293 292 292 292 291 290 289 288 287 287 286 286 286 286
282 280 280 278 279 282 283 283 283 282 282 283 282 283 283 284 284 285 286 285 287 288 290 290 290 289 292 293 294 294 293 295 292 292 293 294 293 293 293 293 293 292 291 291 290 289 288 288 287 287 286 286 286 286
280 281 281 281 281 281 282 282 280 280 281 281 281 282 283 284 283 286 285 289 290 290 291 291 292 293 292 293 293 294 294 294 294 294 294 294 294 294 293 293 292 292 290 290 289 288 287 287 287 286 286 286 286 285

GFSWCAN_sfc_thetae_096.txt.gz
Theta_e
312 312 311 311 312 318 322 322 322 321 320 319 318 316 315 315 314 310 307 311 306 300 301 301 302 298 297 295 289 293 291 293 292 289 289 290 289 292 290 292 291 290 288 287 289 285 284 297 295 290 293 295 296 296
310 311 311 309 310 311 313 321 321 320 319 318 317 316 315 315 314 312 305 311 310 304 302 305 305 305 303 301 297 296 293 293 294 292 292 292 290 292 291 287 295 288 292 289 291 291 297 297 296 298 298 296 296 295
310 310 309 309 309 310 311 317 320 320 318 317 316 316 315 315 314 311 307 308 307 301 299 300 300 304 306 305 306 293 294 297 295 298 293 291 288 292 286 289 290 294 297 292 293 296 297 297 297 298 298 297 298 298
310 311 310 309 308 310 312 313 314 319 318 317 316 316 315 314 313 312 307 309 305 301 294 296 304 301 305 305 304 303 300 301 299 298 293 291 290 294 288 290 289 293 295 293 293 296 298 298 298 298 298 299 298 298
309 310 310 310 309 312 313 313 312 319 318 316 316 315 314 313 313 311 309 309 309 301 293 295 299 301 302 301 302 303 301 298 296 292 291 289 292 292 292 291 288 293 291 289 289 296 295 297 299 300 298 297 298 298
308 309 310 310 309 311 312 312 311 318 317 316 315 315 313 312 312 307 300 308 310 309 296 291 298 296 298 299 299 299 299 298 296 293 292 293 296 292 287 285 292 294 296 296 293 297 298 298 299 299 297 298 298 298
306 308 309 309 309 311 311 311 312 317 316 315 315 314 312 311 308 300 298 304 310 308 296 290 290 295 298 297 296 297 299 296 295 294 292 293 293 293 289 285 292 295 296 297 297 296 294 297 296 299 299 298 300 298
306 307 309 309 310 310 312 312 310 312 316 315 314 312 311 310 305 302 304 308 309 301 298 289 289 291 297 292 291 297 294 295 295 292 293 290 292 291 285 291 294 296 296 296 297 297 297 297 298 298 298 298 296 295
305 307 308 310 310 310 311 312 312 310 315 314 312 310 308 304 299 301 307 308 308 300 289 290 287 285 296 294 294 293 294 288 293 289 289 290 288 285 290 292 293 294 295 295 297 297 296 295 296 296 296 296 294 294
305 306 308 308 309 309 310 310 311 308 314 311 308 302 295 299 307 306 300 297 297 297 296 289 293 288 293 293 291 291 292 289 286 290 292 287 286 292 294 296 296 297 298 297 294 293 295 294 295 295 294 296 295 294
305 307 307 308 307 308 309 310 311 309 310 306 296 293 301 306 299 295 289 289 289 287 291 291 292 289 295 290 290 294 290 290 283 287 287 286 285 291 295 295 297 297 297 297 297 297 298 297 296 296 296 296 296 295
305 306 307 307 308 308 308 309 309 309 307 299 299 302 299 293 289 285 284 287 286 285 290 289 290 293 293 297 292 292 288 288 282 291 286 283 288 294 296 296 297 298 298 297 298 297 296 297 298 297 296 295 295 295
305 306 307 307 308 308 308 309 308 307 304 302 295 290 289 287 282 283 280 283 284 289 290 290 289 292 294 295 292 290 286 285 289 283 282 285 292 295 296 296 297 296 295 295 295 296 296 296 298 297 296 296 295 294
305 306 306 307 307 307 307 308 307 305 299 288 284 281 285 283 285 286 287 287 291 290 290 290 290 290 291 290 290 286 287 286 281 279 280 288 292 294 296 296 295 294 293 294 294 294 295 295 297 297 296 296 294 293
305 305 306 306 307 306 306 307 307 303 294 285 287 284 284 291 291 293 294 291 292 293 291 290 290 290 288 287 288 286 283 279 281 281 287 293 294 295 294 294 292 291 291 291 292 293 294 295 296 295 295 295 294 294
305 305 304 306 306 306 306 306 304 299 293 289 290 289 291 289 290 292 291 290 293 293 293 293 288 285 284 285 284 281 281 279 283 287 292 294 294 293 292 292 291 290 290 291 292 293 294 296 295 294 294 294 294 293
305 300 304 305 306 305 304 301 298 288 288 284 287 293 292 292 291 290 291 291 295 291 288 290 283 282 287 283 281 284 283 287 290 293 295 296 294 292 292 291 290 290 291 291 293 295 295 295 294 293 291 292 292 292
300 302 305 305 302 300 295 286 285 285 284 286 290 292 294 294 292 291 292 294 293 291 291 288 291 285 282 280 282 287 290 293 295 295 295 295 295 292 293 290 290 291 291 291 292 292 293 293 292 291 291 291 290 289
301 303 304 303 298 288 285 284 285 284 286 292 294 294 293 293 294 294 293 294 295 296 294 290 286 285 285 289 290 291 292 294 293 294 295 295 293 292 291 291 291 290 290 290 291 292 292 292 292 291 291 290 288 288
305 303 302 300 297 287 284 283 286 285 285 288 293 291 292 292 293 293 293 293 294 293 288 286 288 290 291 293 295 294 295 296 295 292 292 293 292 292 291 290 290 291 291 291 292 294 292 292 292 292 291 290 288 288
302 300 298 293 287 287 285 284 285 286 287 288 291 291 289 292 290 290 290 293 291 288 288 291 292 294 297 297 298 298 297 297 295 295 293 291 293 292 291 291 291 291 290 291 291 292 292 290 291 292 291 290 290 290
295 296 290 291 285 285 285 286 286 287 288 288 288 289 287 286 287 289 292 289 288 290 292 292 293 295 296 296 298 297 297 297 297 297 297 295 291 291 290 291 291 289 289 290 292 291 291 292 292 291 291 290 291 289
296 293 287 286 285 285 283 287 285 287 284 285 288 285 285 286 288 292 286 289 290 294 294 294 296 297 296 298 297 296 296 296 295 294 295 294 294 293 292 292 293 291 289 290 292 293 291 294 293 291 291 289 289 288
296 289 285 285 285 282 284 283 286 286 287 285 285 283 285 286 289 286 284 287 290 293 293 293 296 295 295 296 295 295 296 295 293 293 294 294 291 291 292 292 293 293 292 292 292 292 292 291 293 290 289 288 288 287
285 283 285 282 285 283 282 283 284 285 283 285 283 282 283 286 283 283 283 286 289 291 293 294 295 296 294 294 295 296 296 295 293 291 292 293 294 292 291 291 291 292 293 292 291 291 291 292 290 289 289 288 287 286
280 282 282 282 283 283 284 282 283 284 284 282 283 284 285 284 282 281 284 288 290 291 293 293 293 294 294 296 295 295 295 296 294 292 292 292 294 292 290 289 288 288 293 293 292 291 291 291 290 289 288 289 291 287
279 279 283 288 287 287 286 287 288 285 282 280 282 282 283 280 281 285 290 292 291 293 295 296 296 295 295 295 297 298 298 297 295 294 294 294 294 295 294 291 290 291 293 294 293 292 291 291 290 289 289 289 289 288
283 284 281 284 284 288 284 285 284 284 283 285 285 281 282 282 283 288 290 293 294 295 295 296 297 297 296 297 297 297 295 294 293 293 292 292 292 292 293 295 295 295 294 294 294 293 293 292 291 290 289 289 288 288
283 285 286 280 285 286 286 285 284 286 287 287 284 283 284 286 287 287 289 293 294 294 293 293 294 296 296 294 294 295 294 293 290 286 286 286 287 288 291 293 293 293 293 293 296 295 293 293 292 291 290 290 289 288
283 288 285 285 283 282 284 285 285 288 288 288 286 285 284 285 285 285 290 292 292 292 293 294 295 294 293 292 291 291 293 293 293 291 288 288 289 291 292 292 292 292 292 292 292 292 297 294 294 291 289 288 288 287
287 287 283 282 279 282 285 287 287 286 286 284 285 285 284 283 285 286 289 291 293 293 292 292 292 293 292 291 291 289 289 293 293 293 293 292 293 292 293 293 293 293 293 292 292 291 291 290 289 288 287 287 287 287
286 283 281 279 281 285 286 285 284 283 283 283 282 283 283 284 283 284 287 291 292 291 293 292 291 291 294 294 294 294 294 293 293 293 293 292 293 293 293 293 293 293 292 292 291 291 290 289 288 288 287 286 286 286
284 284 283 283 282 283 283 283 282 281 282 281 281 282 283 283 283 285 287 289 291 292 292 292 293 293 293 293 293 294 294 293 294 296 296 296 296 294 293 293 293 293 292 291 290 290 289 287 287 287 286 285 286 286

GFSWCAN_sfc_thetae_099.txt.gz
Theta_e
309 310 311 312 314 313 312 313 322 322 322 321 320 318 316 315 314 309 302 306 300 293 295 298 299 293 292 290 286 289 287 288 287 283 284 285 285 287 285 287 287 286 282 281 283 279 281 294 292 287 291 292 294 294
308 309 310 312 313 312 312 312 319 322 321 320 319 318 317 316 315 311 299 307 307 300 296 303 302 300 299 297 292 291 288 289 290 288 286 286 286 286 286 282 290 284 288 286 287 287 294 294 293 295 295 293 293 294
307 308 309 311 311 312 311 311 311 317 320 319 318 317 316 316 315 311 302 304 302 296 294 298 298 301 302 302 301 290 289 293 291 292 288 286 284 286 282 284 285 288 293 289 289 291 293 294 294 295 295 294 295 296
306 307 309 310 311 310 309 310 311 311 318 319 318 317 316 315 314 311 302 304 300 296 289 292 301 298 302 301 301 299 296 297 295 293 288 285 285 289 284 286 285 288 288 289 289 292 293 294 294 296 297 297 296 296
305 307 309 309 310 310 309 309 310 311 313 318 318 317 315 314 313 309 305 306 305 296 290 291 295 297 299 299 299 299 297 294 291 288 286 285 288 288 288 286 287 289 287 286 287 293 291 292 295 297 295 295 296 296
306 308 308 309 310 310 309 309 311 312 313 311 317 316 314 313 312 305 297 304 307 304 292 287 294 293 295 296 296 295 296 294 292 289 287 289 291 288 280 281 290 292 294 293 291 291 292 293 294 297 296 296 296 296
305 306 307 308 309 310 309 309 311 312 312 309 316 314 313 312 307 298 294 300 308 305 293 287 286 291 294 294 293 292 293 291 290 289 287 288 288 289 281 284 291 292 293 293 293 292 290 292 292 295 297 297 299 297
304 305 307 307 308 309 309 309 310 311 311 311 314 312 311 310 305 299 302 307 308 298 295 284 284 287 293 288 288 292 290 290 290 289 288 286 288 287 282 290 293 295 295 295 295 295 294 294 293 295 296 295 294 294
304 305 306 306 307 308 309 310 309 311 311 312 313 311 308 303 298 296 308 307 304 297 287 285 281 280 291 289 290 289 289 283 289 285 285 286 284 281 287 290 292 292 292 292 294 294 293 291 292 292 294 293 292 292
304 305 305 307 307 308 309 309 309 311 311 312 308 303 295 300 307 307 301 296 295 294 291 285 289 284 290 288 287 287 287 282 278 285 287 283 284 290 290 293 294 294 293 293 291 291 291 291 292 292 292 294 294 293
304 304 305 306 307 308 309 309 310 310 309 307 299 294 301 307 299 294 290 288 289 286 290 289 288 286 291 287 287 288 283 285 281 283 282 281 281 289 293 293 294 295 295 295 294 294 293 294 294 293 293 294 293 293
303 304 305 306 307 307 308 308 309 306 304 300 299 303 300 295 290 286 285 288 287 285 290 287 288 289 291 294 288 287 283 280 278 286 284 279 286 291 291 292 293 294 295 295 295 294 293 294 294 294 293 293 293 294
303 304 305 306 306 307 307 308 308 307 304 302 297 292 289 287 282 282 279 283 284 288 289 288 287 290 291 293 287 284 280 279 285 277 280 282 288 291 291 293 293 293 294 294 293 293 293 293 294 294 293 294 293 293
304 304 305 306 306 306 306 306 307 306 299 287 284 281 284 281 284 285 285 286 289 288 290 291 289 288 290 285 285 280 283 281 275 276 279 283 288 291 291 293 293 292 292 291 291 292 292 292 292 293 294 294 293 292
303 304 305 305 306 306 306 306 306 303 291 285 285 283 283 285 286 287 290 289 290 292 292 290 288 288 281 283 281 281 278 275 279 280 282 287 289 289 290 290 289 288 289 289 290 290 291 292 291 291 293 293 293 292
304 303 302 305 305 306 305 304 304 299 290 285 286 285 285 286 286 288 289 288 292 292 293 290 285 282 280 281 279 278 277 278 281 284 287 289 289 289 289 288 287 287 287 288 288 289 291 292 291 292 292 292 292 292
303 295 303 305 305 305 303 297 295 287 285 284 285 289 288 287 289 289 290 290 294 291 287 286 281 279 281 275 276 280 280 285 286 287 288 290 289 289 288 288 288 288 288 288 289 289 290 292 293 291 289 290 291 291
295 299 304 305 304 301 289 287 285 285 283 285 285 287 290 291 290 290 292 293 292 291 290 286 285 280 277 276 279 284 286 288 288 290 291 291 289 289 289 287 288 288 287 287 289 291 291 291 290 289 289 289 288 288
299 301 304 303 296 288 285 283 285 283 285 287 289 290 290 291 293 294 293 294 295 294 292 286 280 279 281 284 286 286 287 288 289 290 291 290 290 289 288 288 288 287 287 287 289 289 289 290 289 289 289 289 287 287
303 304 303 300 296 287 284 282 285 285 285 287 291 289 290 290 292 292 293 293 293 292 287 284 283 286 287 289 291 290 291 291 293 289 288 288 288 288 288 287 287 287 289 290 290 292 290 289 290 289 289 288 287 287
302 300 300 294 287 287 285 283 284 285 286 288 292 291 289 291 290 290 290 293 289 286 283 287 289 291 293 292 293 292 293 295 293 291 291 288 288 288 287 287 287 288 289 289 289 290 290 289 289 290 289 288 288 289
297 297 291 292 285 285 285 286 286 287 287 288 288 289 287 287 287 289 291 288 286 289 289 290 292 291 292 293 293 294 294 294 294 294 294 292 287 287 287 287 289 287 288 289 290 289 289 290 290 289 288 289 290 289
296 293 287 286 284 283 281 287 285 285 283 284 287 284 284 285 288 291 284 286 288 291 292 293 294 294 293 293 293 292 295 295 294 293 292 289 289 289 288 288 290 289 287 287 290 290 289 292 291 289 289 288 288 288
295 288 285 284 284 280 283 281 285 285 285 284 284 282 284 285 289 283 282 283 288 292 292 293 295 292 291 291 291 292 294 295 293 291 292 291 289 288 289 290 290 290 290 290 290 290 291 290 291 289 287 287 287 287
283 282 283 280 281 280 274 280 283 282 281 284 280 281 283 286 282 282 281 283 289 290 293 294 295 294 293 292 293 293 294 295 293 291 290 292 289 288 288 289 289 290 291 290 289 289 289 290 289 287 287 287 286 285
279 281 281 273 280 279 279 277 281 281 281 281 282 282 282 280 281 280 282 286 290 292 292 293 293 292 293 294 292 292 292 293 293 292 291 293 292 291 289 288 287 288 290 292 290 289 289 289 288 287 287 287 289 286
277 278 282 282 282 282 281 282 284 282 279 277 279 279 280 278 278 282 286 292 292 294 295 296 296 295 295 295 296 296 294 294 293 293 292 294 293 293 292 289 288 290 292 292 292 291 290 289 288 288 287 288 288 287
276 283 280 280 281 282 280 282 283 282 280 280 281 278 278 279 280 285 288 292 294 296 296 296 297 297 297 296 296 295 294 291 291 290 290 289 289 291 291 291 291 294 293 293 292 292 291 290 289 288 288 287 287 288
278 281 281 275 280 281 280 282 282 283 283 283 281 280 282 284 285 286 288 293 295 295 294 294 294 294 293 294 295 295 293 292 290 286 287 286 285 287 289 291 292 291 292 292 295 293 291 291 290 290 289 289 288 288
278 282 281 280 276 278 281 282 282 283 283 284 283 282 282 282 281 282 286 291 292 293 294 295 295 294 292 293 292 292 294 295 295 292 290 288 289 289 289 291 291 290 290 291 291 291 296 292 293 289 287 286 286 286
282 281 279 278 274 277 280 281 282 282 282 281 282 282 282 282 284 286 288 290 291 291 293 292 293 294 293 293 292 290 290 293 295 294 292 291 290 291 292 292 292 291 291 291 291 291 291 289 288 286 286 285 285 286
281 279 278 276 275 278 281 282 281 280 281 281 279 281 282 282 282 283 286 290 291 290 293 292 292 292 294 295 295 295 295 293 291 292 291 291 291 291 292 292 292 292 291 290 290 290 289 288 287 286 286 285 285 285
277 279 279 278 275 279 281 281 279 277 277 278 279 281 282 282 282 284 285 289 291 292 292 293 294 294 294 294 293 292 294 293 293 294 295 294 294 293 292 292 292 292 290 289 289 289 288 286 286 285 285 285 285 285